Location: *
(33.8649°S, 62.1526°E)
Time: 12:45:35
(UTC+00:00)

CZ-3B R/B - Pass Details

Date: 17 January 2021
Orbit: 158 x 5535 km, 25.6° (Epoch: 03 March)

Event Time Altitude Azimuth Distance (km) Brightness Sun altitude
Rises 17:36:55 0° 289° (WNW) 3,139 5.7 -25.6°
Reaches altitude 10° 17:38:37 10° 294° (WNW) 2,571 5.1 -25.8°
Maximum altitude 17:44:47 53° 10° (N) 1,923 3.9 -26.5°
Enters shadow 17:52:13 30° 69° (ENE) 3,883 5.4 -27.4°
Exits shadow 17:55:22 22° 75° (ENE) 4,851 5.9 -27.8°
Drops below altitude 10° 18:02:40 10° 80° (E) 6,958 6.8 -28.6°
Sets 18:11:00 0° 82° (E) 9,056 7.5 -29.5°
